RH
90 94 98 100 101 101 99 98 96 96 96 94 89 83 81 83 80 78 74 66 59 54 52 52 55 55 54 49 40 31 24 18 16 17 19 18 15 16 17 17 17 18 21 23 25 28 30 32 36 38 40 42 44 46 48 50 50 48 45 42 39 35 29 24 21 19 16 15 14 13 13 12 11 11
98 99 99 99 99 101 102 103 103 100 97 97 97 95 91 91 90 87 84 79 72 64 55 52 53 54 56 56 52 45 37 30 24 22 24 23 19 19 23 24 23 20 20 22 23 23 25 26 29 31 32 33 35 38 41 43 43 41 37 34 30 25 21 17 15 13 12 12 11 11 11 11 10 10
100 100 100 99 99 99 100 99 100 98 93 88 89 93 95 94 91 91 92 89 85 79 68 56 52 54 56 58 57 52 47 43 37 30 28 28 25 23 27 34 36 30 24 22 21 21 21 22 24 26 27 29 30 32 33 34 32 30 28 26 23 21 18 17 15 14 14 14 13 13 13 13 12 12
99 100 101 101 100 100 101 100 98 97 94 85 80 85 93 93 89 89 94 95 94 94 85 69 57 54 55 58 59 57 53 50 46 40 35 35 34 31 32 39 44 42 35 28 24 21 19 19 21 23 26 29 31 30 29 27 27 27 28 27 25 22 19 17 16 16 16 16 16 15 15 15 14 14
100 100 100 101 101 100 100 101 100 101 99 91 84 84 88 90 90 92 97 99 99 101 98 84 69 59 57 60 63 62 60 55 52 49 44 45 49 50 49 47 46 47 44 38 32 28 24 22 22 25 29 32 34 33 31 31 33 35 35 32 27 22 20 18 17 17 18 17 18 17 17 17 16 16
99 99 99 100 101 101 101 101 100 99 99 98 97 92 87 90 96 98 100 102 100 101 103 97 84 72 65 65 67 68 66 62 58 55 52 53 61 70 72 68 60 56 53 48 42 38 33 30 30 31 34 37 38 37 37 37 39 40 36 31 26 23 21 20 19 19 19 19 19 19 19 18 18 17
85 88 91 94 96 98 101 102 101 98 94 97 102 100 93 94 100 100 100 102 102 101 102 102 95 86 77 72 71 73 74 70 64 60 57 56 58 63 68 68 66 65 67 62 54 48 43 39 39 39 39 41 42 44 44 44 42 39 35 32 29 27 24 22 21 20 21 21 21 20 20 19 18 18
63 66 70 75 78 79 83 90 97 100 99 97 100 103 99 96 100 102 99 101 103 101 102 103 98 91 84 76 72 75 79 79 76 70 64 61 58 56 54 53 55 62 70 71 65 60 55 51 49 48 48 48 48 50 50 48 45 41 39 36 32 27 24 22 22 22 22 22 22 21 20 19 19 19
53 53 54 55 57 57 58 63 72 84 94 98 101 104 102 98 100 101 99 101 103 102 103 104 97 89 86 78 71 73 79 85 86 83 76 69 65 63 59 54 51 55 63 68 70 69 66 63 61 60 60 59 57 56 54 52 50 46 42 37 30 26 24 24 24 24 24 23 22 21 20 20 20 19
66 62 57 53 51 49 46 45 48 56 70 84 94 101 102 100 99 100 100 100 101 103 106 105 93 83 82 79 70 69 78 88 92 89 85 78 73 71 67 62 57 52 51 57 67 74 75 76 75 71 69 67 65 63 60 56 51 45 39 33 28 27 26 26 25 25 24 23 22 21 21 21 21 20
79 75 71 66 61 57 52 47 43 42 48 59 72 84 91 93 93 95 100 102 102 103 105 102 91 79 76 74 65 60 67 84 96 95 89 86 83 80 75 69 63 57 56 63 71 79 82 82 80 77 73 70 66 61 55 48 41 36 32 30 28 28 27 26 25 24 23 22 21 22 22 22 23 21
79 76 74 72 68 65 63 58 53 47 42 43 49 58 69 78 80 82 88 97 102 102 101 100 92 82 74 69 65 57 52 69 95 101 96 94 91 85 82 76 68 67 77 86 88 88 88 86 83 79 71 62 54 46 40 36 33 31 29 28 27 26 25 25 23 22 22 22 22 23 24 24 24 21
75 73 71 70 67 65 63 62 60 56 50 44 40 40 45 54 61 64 70 86 98 100 101 102 97 87 78 71 71 63 49 62 96 107 101 100 96 89 87 82 73 73 83 90 89 87 84 80 75 67 57 48 41 37 34 32 29 28 26 26 25 23 23 21 21 21 21 22 23 25 26 25 22 22
59 61 64 67 67 66 64 61 59 58 57 51 46 41 37 37 41 45 53 76 98 101 99 102 101 94 87 80 78 71 55 63 96 109 102 100 99 95 92 87 81 78 77 75 72 69 66 62 58 53 48 45 42 40 39 36 33 30 28 26 24 24 23 22 22 22 21 23 26 27 26 24 24 25
49 46 48 58 69 72 70 67 65 63 61 57 53 49 44 38 35 33 35 56 88 103 100 101 103 100 95 89 83 74 61 62 83 102 105 100 96 95 93 91 88 83 77 72 67 64 61 58 56 53 49 45 41 38 38 37 35 31 28 27 26 26 26 25 23 24 25 27 27 26 25 25 25 24
65 56 46 49 61 71 71 67 68 68 66 65 60 55 52 46 40 36 31 35 64 95 103 100 101 102 100 96 90 78 65 62 74 92 104 100 92 91 93 91 89 86 80 76 71 69 67 64 59 54 48 43 38 35 33 32 30 29 27 27 27 26 25 26 27 28 29 28 27 27 27 26 24 23
77 75 66 60 59 65 69 66 65 66 68 73 73 65 60 53 44 41 38 31 44 77 101 102 99 101 102 101 99 89 75 73 82 95 103 100 92 92 93 90 87 85 83 79 77 74 70 64 57 48 42 40 37 33 31 31 30 30 29 28 27 28 28 29 30 30 29 29 28 27 27 26 25 23
73 78 82 80 70 65 68 69 69 70 77 89 92 79 67 61 52 45 43 37 35 57 90 103 99 99 102 100 100 100 93 90 98 103 102 98 98 98 95 90 88 88 87 83 79 74 66 56 47 40 39 40 37 35 35 35 35 35 34 34 34 34 34 34 33 32 30 30 29 28 27 26 22 16
65 76 84 87 83 79 76 72 74 83 94 102 101 89 75 66 58 49 46 44 39 44 69 96 102 99 100 100 99 102 102 100 105 106 98 96 101 100 98 99 95 88 80 71 66 63 55 46 40 40 43 43 41 42 44 46 47 47 46 46 44 41 39 37 35 33 32 31 30 28 24 18 12 8
55 72 89 95 97 99 89 76 78 92 101 103 102 96 80 65 58 55 51 48 45 41 52 82 100 100 99 101 101 101 101 101 105 103 96 95 98 101 106 103 86 70 63 59 56 52 45 41 44 47 49 51 54 56 57 58 59 58 55 52 48 44 41 38 36 35 33 31 26 19 14 9 8 10
49 63 90 102 102 102 93 78 76 88 100 104 101 89 72 63 67 73 68 57 48 44 54 78 96 99 100 101 101 102 101 101 102 96 93 98 101 100 98 83 64 59 61 56 51 45 42 46 50 50 53 59 63 62 62 63 64 60 56 52 47 45 42 39 37 33 27 22 15 10 9 10 13 16
51 58 88 103 100 101 102 89 75 76 87 89 80 70 70 78 87 90 87 75 54 45 62 86 95 97 100 101 101 102 100 100 101 92 86 90 89 80 69 58 55 63 63 56 52 49 48 52 53 54 57 61 63 65 66 66 64 58 54 50 46 43 40 35 30 23 16 11 9 9 13 17 21 24
57 63 93 106 100 102 108 99 81 70 70 71 72 79 91 99 99 97 98 91 68 58 78 98 97 96 102 102 101 102 99 101 103 91 77 74 70 64 62 62 64 66 67 70 68 59 54 59 64 67 64 60 64 72 71 65 59 55 50 47 42 36 29 22 16 12 9 9 11 17 24 28 30 30
67 78 103 106 99 100 101 93 80 72 75 83 91 99 103 102 99 100 103 99 86 81 94 105 101 98 103 103 102 101 99 99 101 96 87 81 78 77 76 73 73 76 78 77 69 60 63 74 82 82 74 64 63 68 66 59 54 49 43 37 30 22 17 13 11 11 13 16 21 28 32 35 35 32
88 100 105 92 88 94 95 93 90 89 94 101 101 100 100 100 100 100 99 99 99 99 101 104 104 99 96 97 100 100 100 100 102 102 98 91 87 84 75 66 69 79 77 65 59 66 80 91 96 93 85 75 64 58 56 53 45 36 28 21 17 14 13 13 14 18 25 30 34 36 36 34 33 32
105 103 90 78 86 97 99 100 97 90 93 102 103 100 100 101 101 96 90 94 101 99 92 94 101 100 93 89 87 85 89 92 91 89 87 83 81 80 75 69 71 74 69 62 67 80 89 95 97 90 79 70 61 55 52 44 32 22 18 17 16 15 15 16 20 27 36 40 41 41 39 36 34 35
95 81 69 73 89 99 101 100 86 75 85 100 103 101 100 100 101 97 90 89 90 84 77 83 97 103 100 96 89 85 86 86 80 77 79 83 86 90 90 85 79 75 74 78 87 94 94 92 86 77 68 63 57 49 40 28 18 16 18 19 18 16 18 22 27 34 41 45 46 45 42 40 39 39
68 63 66 78 90 97 103 99 84 80 93 102 100 101 104 103 103 101 98 96 93 90 89 95 101 102 101 102 102 100 99 98 94 92 92 94 97 99 96 89 83 84 91 95 96 95 89 82 75 68 63 54 43 32 20 13 15 19 20 20 18 20 28 36 39 44 50 53 51 47 43 40 36 29
75 80 88 95 98 100 102 98 91 94 102 102 100 104 106 104 102 102 101 101 100 100 101 101 101 100 100 101 102 102 102 102 102 101 101 101 102 100 98 95 94 98 100 97 92 86 79 74 69 61 51 37 25 18 12 11 18 23 23 21 19 26 43 53 51 53 58 57 49 45 42 36 26 18
98 99 99 100 99 100 101 101 99 101 102 102 102 101 100 101 101 101 101 100 100 100 100 100 101 102 102 101 101 101 102 102 101 101 102 104 104 102 101 101 100 99 95 89 84 79 73 68 60 48 36 26 18 16 13 14 19 25 27 23 18 29 52 60 56 57 59 54 47 45 41 31 20 16
102 101 101 102 101 100 100 97 94 97 101 99 94 92 95 100 102 101 101 101 101 101 101 102 102 102 101 102 101 101 100 100 100 101 102 102 102 101 101 99 96 93 90 83 78 73 68 62 51 38 29 23 20 19 19 18 21 26 28 24 22 33 52 59 61 63 60 50 46 45 37 25 18 16
97 95 94 94 94 93 91 86 86 95 102 98 94 97 101 103 103 102 104 104 104 104 103 102 102 102 101 101 100 100 100 100 101 101 101 101 101 100 99 96 92 89 84 78 73 71 67 58 46 36 29 23 22 23 22 23 27 28 26 24 27 40 57 65 65 62 54 48 47 43 32 22 19 17
92 91 89 89 91 93 93 92 95 102 103 101 101 104 105 105 105 105 105 105 103 102 101 101 101 101 100 100 100 100 100 100 101 101 101 102 101 99 96 91 88 86 82 78 75 74 67 55 44 37 31 26 27 27 23 24 31 33 28 24 28 43 63 70 63 55 54 58 56 42 27 22 24 23
98 98 98 98 99 99 100 102 104 104 101 98 99 101 103 105 106 104 103 102 100 100 100 100 100 100 100 100 101 100 100 101 102 103 103 102 99 95 91 88 87 86 84 82 81 76 66 54 45 40 35 33 37 36 28 22 28 34 34 27 27 45 66 68 59 61 74 78 63 39 23 24 31 31
102 101 101 102 101 102 104 105 104 103 101 97 97 99 100 101 102 101 101 100 99 100 100 100 100 100 100 100 100 100 102 104 104 104 101 98 95 93 92 91 91 89 87 87 85 78 68 58 53 49 47 49 56 60 55 45 36 36 40 35 31 46 68 69 63 76 95 95 73 48 31 28 36 42
104 102 104 106 105 104 105 104 101 101 100 97 95 96 97 98 99 100 100 100 100 100 100 100 100 100 100 101 102 103 105 105 104 102 99 96 95 96 97 97 97 95 92 90 87 80 73 67 61 56 53 57 64 72 80 80 66 48 40 36 34 46 67 78 80 89 102 102 87 66 46 37 46 62
103 103 105 107 107 106 105 103 101 100 100 99 98 98 99 100 101 100 100 100 100 100 100 100 100 101 103 103 103 104 105 103 101 100 99 98 99 99 100 99 99 98 95 91 86 82 79 75 68 58 51 52 57 63 75 92 97 79 55 38 31 41 67 90 98 100 104 106 96 77 58 53 64 80
101 103 104 104 103 101 99 99 99 100 100 101 102 102 101 101 101 101 100 100 100 100 101 102 104 106 106 105 103 102 102 101 100 100 100 100 100 101 101 99 99 99 96 91 87 84 80 75 68 60 52 50 53 55 59 75 95 102 88 60 35 36 63 94 106 103 103 105 98 83 69 67 75 88
102 100 96 92 90 90 90 91 94 96 99 100 100 100 100 100 100 100 100 100 101 102 103 105 107 106 104 102 101 101 100 100 100 100 100 100 100 101 101 100 101 101 98 94 91 88 82 75 70 66 62 58 56 56 55 57 71 89 95 76 47 33 50 80 98 101 101 101 95 84 78 77 82 90
96 93 86 80 81 83 87 91 95 98 100 100 100 100 100 100 100 100 100 100 101 102 103 103 103 102 102 101 101 100 100 100 100 100 100 101 100 101 101 100 101 103 101 100 98 94 87 81 76 73 71 68 66 64 61 59 64 77 88 84 62 40 40 59 77 87 96 100 93 83 81 84 89 94
90 91 89 87 87 90 93 97 99 100 101 100 100 100 100 100 100 101 100 100 100 100 101 100 100 100 101 100 100 100 100 101 100 100 100 100 100 101 101 100 101 103 102 102 101 98 92 87 84 79 74 72 72 71 68 64 65 73 85 92 79 55 45 56 67 72 85 98 94 84 83 87 89 93
93 94 94 93 94 96 98 99 100 100 100 100 100 99 99 99 99 100 100 100 100 100 100 101 101 102 102 102 101 102 101 101 101 101 101 101 101 100 100 101 103 102 98 96 97 97 93 89 85 81 77 74 73 73 72 69 65 66 76 88 87 69 58 67 74 70 74 90 93 85 86 91 90 89
93 93 94 94 96 98 99 100 101 100 100 100 100 100 100 101 102 102 102 102 102 102 103 103 103 103 104 104 102 101 100 100 101 100 100 101 101 100 100 101 99 95 91 90 92 94 91 88 85 82 80 78 74 71 71 71 67 64 67 76 83 73 61 72 88 81 71 81 92 89 89 94 93 87
94 97 98 99 100 100 100 100 100 100 100 101 100 100 100 101 102 102 102 102 102 102 102 101 101 102 104 104 103 102 102 101 101 100 99 99 97 95 92 89 86 84 83 84 87 89 90 90 89 85 82 80 73 67 65 67 67 67 66 70 78 72 56 65 94 100 83 79 88 90 92 96 91 82
98 99 99 99 100 100 100 101 100 100 101 100 100 100 101 100 99 97 94 93 92 92 92 94 96 97 98 97 96 94 93 93 93 92 89 86 83 80 79 79 81 86 88 87 88 91 92 93 94 91 88 85 77 68 63 62 64 67 65 65 75 77 59 56 83 105 100 92 92 92 94 95 87 77
Wind_Speed
88 88 89 89 87 86 85 84 82 81 80 80 80 79 77 77 77 78 77 75 75 74 72 70 68 66 66 67 69 69 69 69 68 67 67 67 66 66 66 65 64 64 63 63 63 62 62 62 62 62 62 63 63 64 64 65 65 65 65 65 65 66 67 68 69 70 72 73 73 74 75 76 78 79
88 88 89 90 89 87 86 85 84 82 82 81 81 81 80 80 80 79 78 77 76 77 76 74 71 69 67 67 68 68 68 68 69 69 68 68 67 67 67 67 66 66 65 64 64 63 63 62 62 62 62 63 63 63 64 64 64 64 64 63 64 65 65 67 68 69 70 71 71 71 72 73 74 75
89 88 87 88 87 87 87 87 86 84 83 82 82 82 83 83 82 82 81 80 78 79 79 77 75 73 70 69 68 68 67 67 68 68 69 68 68 68 67 68 68 68 67 67 66 65 64 64 63 63 63 63 63 63 63 63 63 63 62 63 64 65 66 67 68 69 70 70 70 71 71 72 72 73
92 90 88 86 85 85 85 85 85 84 84 82 81 82 84 84 84 83 83 82 81 81 81 79 77 76 74 71 69 67 67 67 67 67 68 68 68 68 68 68 68 69 69 69 68 67 66 66 65 64 64 64 64 63 63 63 63 63 63 65 66 68 69 70 70 71 71 72 72 72 73 73 73 74
92 92 90 89 88 87 87 86 86 85 85 83 82 83 84 84 83 83 83 82 82 82 82 80 78 77 76 74 71 69 68 67 67 66 66 67 68 68 68 68 69 69 69 69 69 69 68 67 67 66 66 66 65 65 65 65 65 66 67 68 70 71 71 72 72 73 73 74 74 74 75 75 76 76
93 93 93 91 90 90 89 89 89 89 88 86 84 84 84 84 83 82 82 82 82 82 82 80 78 77 76 74 72 70 69 68 68 67 66 66 67 68 69 69 69 69 70 70 70 70 69 69 69 68 68 67 67 67 67 68 68 69 71 72 73 73 73 74 74 75 75 75 76 76 77 77 78 79
94 94 95 94 93 93 93 92 93 92 91 90 88 85 84 84 84 83 82 82 82 82 82 81 78 77 76 74 72 70 69 69 68 68 68 67 67 68 69 70 70 70 71 71 71 71 71 71 71 70 70 70 70 70 71 71 72 73 73 74 74 75 75 76 76 76 76 77 77 78 79 80 81 81
89 91 94 95 96 97 97 97 97 96 94 92 90 88 86 85 86 86 85 83 82 82 83 82 79 77 75 74 72 71 69 68 68 68 69 69 68 67 68 69 69 71 72 73 73 73 73 73 73 73 73 73 73 74 74 74 74 75 75 76 76 77 77 77 77 77 78 78 79 80 81 82 83 83
81 85 88 91 93 96 98 99 99 100 99 97 95 92 89 87 87 88 87 85 85 85 84 82 79 77 76 74 73 71 70 69 68 69 69 69 68 67 66 67 68 70 72 73 74 75 75 74 74 74 74 75 75 76 76 76 77 77 77 77 77 77 77 78 78 79 79 80 81 82 83 84 85 86
73 76 79 82 84 87 91 94 96 98 100 101 99 97 95 92 90 90 88 86 86 87 85 82 80 77 75 73 71 69 70 70 69 69 69 68 68 67 66 65 67 68 70 72 74 74 74 75 74 74 75 75 75 76 76 77 77 77 77 77 77 77 77 78 79 80 81 82 83 84 85 87 87 87
71 72 73 75 76 77 80 84 87 90 93 97 99 100 99 98 97 95 93 89 87 87 86 85 82 78 75 72 69 68 69 70 70 70 70 68 67 66 65 65 66 66 67 69 72 72 73 73 73 74 74 74 74 75 75 75 75 75 75 76 76 77 78 79 80 81 83 84 85 87 88 88 88 88
70 70 71 72 72 72 73 75 77 79 82 86 91 95 98 100 100 99 98 96 92 89 88 87 85 82 78 74 71 70 69 70 71 72 71 69 68 66 65 64 65 65 66 68 69 70 70 70 70 70 71 71 72 72 73 73 74 75 76 77 78 79 80 81 82 84 85 87 88 89 89 89 88 88
67 67 67 68 69 69 69 70 71 73 74 77 80 85 89 95 99 99 99 99 97 93 91 89 88 85 81 78 75 72 71 71 73 74 72 69 68 66 65 64 64 65 67 68 68 68 68 68 68 68 68 69 70 70 71 72 74 75 77 78 79 81 82 83 84 85 87 88 89 89 89 89 89 90
61 63 64 65 65 65 66 66 67 68 69 71 73 76 79 84 90 95 97 98 98 97 95 92 90 88 85 81 77 74 73 74 75 74 71 69 68 67 66 64 64 65 67 67 67 67 67 67 67 67 69 70 72 72 73 73 74 76 77 79 80 81 83 84 85 87 88 89 89 89 89 90 90 90
49 53 57 60 60 61 62 63 63 64 65 66 68 70 73 76 80 85 90 94 96 97 96 94 92 90 87 84 80 77 76 77 77 75 72 70 70 70 69 67 66 67 68 67 66 66 66 66 66 68 71 72 73 74 75 76 76 78 79 80 82 83 85 86 88 89 89 89 89 89 90 91 91 91
37 40 44 50 54 54 56 57 59 60 61 62 63 65 68 71 74 77 81 86 91 94 94 93 92 90 87 84 81 78 78 79 79 75 72 71 72 72 72 71 69 70 70 69 67 66 66 66 67 69 71 73 74 75 76 77 78 80 81 83 84 86 87 88 89 90 89 90 90 90 91 92 92 92
34 34 35 39 43 45 48 50 53 55 57 57 58 59 62 65 68 71 74 78 84 89 91 89 88 87 85 83 80 80 80 80 78 75 72 72 73 73 74 73 72 73 72 70 68 67 67 69 70 71 72 74 74 75 76 78 79 81 83 85 86 87 88 89 90 89 89 90 91 91 92 92 92 92
30 31 32 33 36 39 43 45 47 49 51 51 51 53 55 58 61 65 68 71 77 84 87 86 84 83 82 81 80 80 81 80 77 73 72 72 73 74 75 74 73 73 72 71 69 68 69 72 73 72 72 73 74 75 76 78 81 82 84 85 86 87 88 89 89 89 90 90 91 92 92 92 93 93
27 27 27 29 30 33 38 41 43 45 46 47 47 48 49 51 54 57 61 64 68 75 80 82 81 80 80 79 78 78 79 77 75 72 71 73 74 75 74 73 72 71 71 71 71 70 70 72 72 70 71 74 75 76 78 79 80 81 82 83 85 86 87 88 89 90 90 90 91 92 92 93 92 91
25 25 25 26 27 28 32 36 40 42 44 45 46 46 45 45 47 50 53 58 62 66 71 77 80 78 77 77 76 74 73 72 72 72 72 73 74 73 70 68 68 68 70 72 71 69 68 69 70 69 72 75 76 76 77 78 78 79 81 82 84 85 87 88 89 89 90 90 91 91 90 89 86 85
24 25 26 27 28 27 28 31 35 40 43 45 45 43 41 40 41 43 46 51 56 60 63 69 75 77 76 75 74 72 70 69 70 72 72 72 71 69 66 66 67 68 70 71 69 67 66 69 70 71 73 75 75 74 75 75 76 78 79 81 82 84 86 87 88 88 88 88 88 85 83 80 78 78
24 25 25 25 26 26 27 30 33 35 38 41 40 37 35 34 35 37 40 44 50 55 57 62 68 72 72 71 72 72 70 68 69 71 71 69 68 68 68 69 69 68 68 69 69 67 68 70 71 72 73 72 71 72 73 74 76 77 78 79 81 82 84 86 86 87 86 84 81 78 75 75 75 76
24 23 23 23 23 24 26 29 31 32 33 34 32 30 29 29 30 33 36 40 44 48 51 55 60 63 65 67 70 72 71 67 67 68 69 68 68 68 69 69 67 66 66 68 69 68 69 70 71 72 71 69 68 69 71 72 73 75 77 79 80 81 82 83 83 82 81 78 74 71 71 72 74 77
22 22 22 22 22 23 23 25 28 28 28 28 27 26 26 28 30 33 36 38 40 43 44 46 49 53 58 61 64 67 69 67 66 66 67 68 68 67 65 64 62 63 65 67 68 68 68 69 69 70 70 68 67 67 68 68 70 72 74 76 77 77 77 77 75 74 72 71 69 68 69 71 74 78
21 21 22 21 21 21 20 21 23 24 25 26 26 26 27 29 31 33 35 37 37 37 37 39 41 45 49 52 55 58 62 64 64 63 62 63 63 63 63 63 62 63 65 67 68 68 67 66 66 67 68 68 68 68 66 65 66 69 71 72 71 70 69 68 67 65 65 65 66 67 69 71 73 77
21 21 21 20 20 19 17 18 20 21 23 24 25 25 25 26 27 28 31 35 36 34 33 35 37 39 42 44 47 50 51 55 59 60 58 58 59 60 61 62 62 62 64 66 67 66 65 64 65 66 67 66 67 67 67 66 64 63 64 64 63 63 63 62 61 60 60 62 63 66 69 71 73 76
20 20 20 20 19 17 16 17 18 20 21 21 21 21 19 19 20 22 27 32 35 35 34 35 36 37 37 39 42 44 46 49 53 55 56 56 57 56 56 57 59 61 63 64 64 63 62 62 63 64 64 65 65 66 66 65 61 57 56 56 56 57 58 59 58 57 58 59 62 65 68 70 73 77
19 19 19 17 15 14 14 15 16 18 18 19 19 18 17 16 17 19 23 27 30 32 33 33 34 34 34 36 38 41 43 45 47 49 50 51 51 51 53 55 57 59 59 60 59 60 60 60 60 62 63 64 65 64 62 59 54 50 50 51 51 53 54 56 56 55 56 59 62 64 67 70 72 74
17 16 14 12 11 12 14 15 16 18 19 19 18 17 17 16 16 17 19 21 23 26 27 29 30 31 32 34 35 37 39 40 41 42 44 45 47 50 52 54 54 55 55 55 56 57 57 58 59 61 62 62 61 59 56 52 47 45 46 48 48 49 51 53 54 54 55 58 61 64 67 68 68 68
9 9 8 8 9 11 13 15 17 18 18 18 16 16 16 15 15 15 17 18 20 22 23 25 26 27 29 30 32 33 35 36 38 40 42 44 46 48 48 49 50 51 52 53 54 55 56 57 59 59 58 57 55 53 51 49 44 41 43 46 46 46 48 51 52 54 56 58 61 63 64 64 63 63
6 6 6 7 7 9 10 12 14 14 14 14 14 14 14 14 15 16 17 18 19 20 22 23 24 26 27 28 30 32 33 35 37 39 41 42 43 44 45 46 47 49 50 52 53 54 55 57 57 56 54 52 50 49 48 47 43 40 40 43 45 45 46 48 49 52 56 58 59 59 59 59 60 59
8 8 8 9 9 10 11 12 12 12 12 13 13 13 14 15 16 17 17 18 19 20 21 23 24 25 27 28 30 31 32 34 36 37 38 40 41 42 44 45 46 47 49 51 52 54 55 55 54 53 51 49 48 48 47 45 43 40 38 40 43 44 45 47 47 50 55 57 56 54 54 55 55 54
8 7 7 7 7 8 10 10 11 12 13 14 14 15 16 17 17 17 18 19 20 21 22 23 24 25 26 28 29 30 32 33 34 36 37 39 41 42 43 44 45 46 48 49 51 53 53 53 51 50 49 47 47 48 48 44 42 41 38 38 40 42 44 46 47 49 52 54 53 51 50 50 49 49
3 3 4 5 6 7 8 9 10 11 13 13 14 15 16 16 16 17 18 19 19 21 22 23 24 25 26 27 29 30 31 33 34 36 38 40 41 42 42 43 45 46 47 48 49 50 51 51 50 48 47 46 46 48 50 47 43 40 39 38 39 41 43 44 45 46 50 52 52 50 47 44 44 45
3 4 4 5 7 8 8 9 9 9 10 10 11 12 13 13 14 15 17 18 19 20 21 22 24 25 26 28 29 30 32 33 35 37 38 40 40 41 42 43 44 46 46 47 47 48 49 48 48 46 45 44 44 46 51 52 49 44 40 39 39 40 42 42 42 44 47 50 50 49 46 41 39 40
5 5 5 6 6 7 8 8 8 8 8 9 9 10 10 12 13 15 16 18 19 20 21 23 24 26 27 28 30 31 33 34 36 38 39 40 40 41 42 43 44 45 46 46 47 47 47 46 46 44 42 41 40 41 45 51 53 49 43 39 38 38 39 40 41 43 45 47 47 47 45 41 37 37
4 4 5 5 6 6 7 6 5 5 5 6 7 8 9 12 13 15 16 17 19 20 22 23 25 26 28 29 31 32 34 36 37 38 39 40 41 41 43 44 44 45 46 47 47 47 46 46 46 45 42 40 39 37 38 44 50 52 47 41 37 36 37 37 39 41 43 44 44 44 42 39 37 35
4 5 6 6 6 6 5 4 3 2 2 3 5 7 9 11 12 14 15 17 19 21 22 24 26 27 29 31 32 34 36 37 38 39 40 40 41 42 43 44 44 45 46 47 47 48 47 46 46 45 43 41 40 37 35 36 41 47 49 46 40 36 35 35 37 39 40 40 40 40 39 37 35 32
4 5 6 6 6 5 4 3 2 1 2 3 5 7 9 10 12 14 16 18 20 21 23 25 27 28 30 32 34 35 37 38 38 39 40 41 42 43 43 44 44 45 46 48 48 48 48 47 46 45 44 43 41 40 37 35 36 40 45 47 44 38 35 34 34 36 37 36 35 35 35 35 34 31
3 4 4 4 5 4 3 2 1 2 3 5 6 8 9 11 13 15 17 19 21 23 24 26 28 29 31 32 33 35 36 37 38 39 41 42 42 43 44 44 45 45 46 48 48 48 48 48 47 46 45 44 43 42 39 37 36 37 40 44 45 42 37 33 32 33 34 34 32 31 31 32 31 29
4 4 4 4 4 3 2 1 1 3 5 7 8 10 11 13 14 17 18 20 22 23 25 26 27 29 30 31 32 34 35 37 38 40 41 42 43 44 45 45 46 46 46 46 46 47 48 48 48 47 46 44 43 42 41 39 37 35 36 39 42 43 40 36 32 30 30 30 29 28 28 29 28 26
6 6 5 4 3 2 1 1 2 4 6 8 10 11 12 14 15 17 18 20 21 22 23 24 25 27 28 30 32 34 36 37 39 40 42 43 44 45 46 46 47 47 46 46 46 47 48 49 49 48 47 45 44 42 42 41 38 35 34 35 37 40 40 39 36 32 29 27 26 25 25 26 26 24
6 5 4 4 3 2 2 3 4 5 7 8 9 11 12 13 14 16 17 18 19 21 22 23 25 27 29 31 33 35 36 38 40 41 42 43 44 45 46 47 47 47 47 47 47 48 49 49 49 48 48 47 45 43 42 41 40 37 34 33 34 36 37 37 37 34 30 26 24 23 23 23 24 22
3 2 2 2 3 4 5 6 7 7 8 9 10 11 12 14 15 16 17 19 20 22 23 25 26 28 30 32 34 35 37 39 40 42 43 44 45 46 47 47 48 48 48 48 49 49 50 50 50 50 49 49 47 45 42 41 41 38 36 34 33 34 34 34 34 34 32 27 23 21 21 21 22 21
2 3 4 4 5 6 7 8 8 9 10 11 12 13 14 15 16 18 19 20 22 23 25 26 28 30 32 33 35 36 38 39 41 42 44 45 46 46 47 48 48 49 50 50 50 51 51 52 52 53 52 52 50 48 45 42 41 40 37 35 33 32 33 32 30 30 31 29 25 21 19 18 20 20
Wind_Direction
255 254 253 252 251 251 251 250 249 249 250 251 251 251 251 251 252 253 254 254 255 254 253 254 254 255 255 255 255 254 253 251 251 251 251 252 251 250 250 250 250 250 250 250 250 251 251 252 252 253 254 254 255 256 256 257 257 258 258 259 259 259 260 260 260 260 260 261 261 261 262 262 262 261
252 252 252 252 252 251 252 252 250 250 250 250 251 251 251 250 251 252 253 253 254 255 255 254 255 255 255 255 255 255 254 253 252 252 251 252 251 251 251 251 251 250 250 250 250 250 250 250 251 251 252 253 253 254 254 255 256 256 257 257 258 259 260 260 261 261 261 262 262 262 262 262 263 263
248 248 248 250 251 251 252 252 252 251 250 251 251 252 252 251 250 251 251 252 252 254 255 255 255 255 255 254 255 255 254 254 254 253 253 252 251 252 252 252 251 251 250 249 249 249 249 250 250 250 251 251 251 252 252 253 254 254 255 256 257 258 259 260 261 262 262 263 264 264 264 264 265 265
245 245 245 245 247 249 250 250 251 251 251 251 251 251 251 251 250 250 250 251 251 251 252 253 254 254 254 254 254 255 255 255 254 254 254 253 252 252 252 252 252 251 251 250 250 249 249 249 249 249 249 250 250 250 251 252 253 254 255 256 257 257 258 260 261 262 263 264 265 266 266 267 267 268
244 244 244 244 245 246 247 248 249 250 251 251 250 250 250 250 250 249 249 250 249 249 250 251 251 252 253 254 254 255 255 255 254 255 255 254 253 252 251 251 251 251 252 252 251 250 250 249 249 249 249 249 250 250 251 253 254 255 256 256 257 258 259 260 261 262 264 265 266 267 268 269 269 270
246 246 245 245 245 246 247 248 249 250 250 250 250 249 248 248 248 248 249 249 248 248 248 248 248 249 250 251 252 253 254 254 254 254 254 253 252 251 251 251 251 252 252 253 252 251 251 250 249 249 249 250 251 251 252 253 254 255 256 257 258 259 260 261 261 263 264 265 266 267 268 269 270 271
250 249 248 248 248 248 247 248 249 249 249 249 248 247 247 246 245 246 247 248 248 248 247 247 246 246 247 249 250 251 252 253 254 253 253 253 252 251 251 251 251 252 252 253 253 253 252 252 251 251 250 251 251 252 253 254 255 256 257 258 259 260 260 261 262 263 264 265 267 268 269 270 271 272
251 251 251 250 250 250 250 249 249 248 248 247 246 246 245 244 244 244 245 246 247 247 247 247 247 246 245 246 248 249 250 252 253 253 253 253 252 252 252 251 251 251 252 252 253 253 253 254 254 253 253 253 253 254 255 256 257 259 259 260 261 261 262 262 263 264 265 266 268 269 270 270 271 272
250 251 251 251 251 251 250 250 249 248 247 246 245 245 244 244 243 243 244 245 245 246 247 248 248 247 246 245 246 247 248 250 252 253 253 253 253 253 253 252 252 251 251 252 253 254 254 255 255 256 256 256 256 257 257 258 259 260 261 262 262 263 263 264 264 265 266 267 268 269 270 271 271 272
249 249 250 250 249 250 250 249 249 248 247 246 245 244 243 243 243 243 243 244 244 245 246 247 248 247 246 245 244 246 247 248 249 251 252 252 253 253 253 254 254 253 253 254 254 254 255 256 257 257 258 258 258 259 259 260 261 262 262 263 263 264 264 265 265 266 267 268 269 270 270 271 272 273
250 250 250 249 248 248 248 249 248 247 246 245 245 243 243 243 243 243 242 242 243 244 245 245 246 246 245 244 244 245 247 248 248 249 251 253 253 254 254 255 255 255 254 254 254 255 255 256 257 258 258 259 259 260 260 261 262 262 263 264 264 265 265 266 267 268 269 269 270 270 271 272 273 274
252 251 251 251 250 249 248 248 248 247 246 246 245 244 243 242 242 242 242 241 241 242 243 244 244 244 244 245 245 246 249 249 249 248 250 252 253 255 255 255 255 255 254 253 254 254 255 256 257 258 259 259 260 261 262 263 263 264 264 265 265 266 267 268 269 270 270 271 271 271 272 273 274 275
255 254 253 252 251 250 249 247 247 246 246 246 246 245 244 243 242 241 241 241 240 240 241 242 243 243 244 245 246 247 249 249 248 247 249 251 253 255 255 256 255 254 253 253 254 255 256 257 257 258 259 260 262 264 265 266 266 267 267 267 268 269 269 270 270 271 271 271 272 273 274 275 275 275
256 255 254 253 252 250 249 247 246 246 245 245 245 246 245 245 243 242 240 239 239 239 239 240 241 242 243 245 245 246 247 248 247 246 248 250 252 253 254 254 254 253 253 254 255 256 257 258 259 260 262 264 266 267 268 269 270 270 271 271 271 271 271 272 272 272 272 273 273 274 275 276 276 276
260 257 254 251 249 249 248 247 246 245 244 244 244 244 245 245 245 244 241 239 238 238 238 238 239 241 242 243 243 244 245 247 246 245 246 248 250 251 252 253 253 253 254 255 256 258 259 260 262 264 267 268 270 270 270 271 272 272 273 273 273 273 273 273 273 274 274 275 275 276 276 276 276 276
263 261 255 250 247 246 247 246 244 243 243 243 243 244 244 244 244 244 243 241 238 237 237 238 238 239 240 240 241 242 243 245 244 244 245 247 249 250 251 252 253 254 256 257 258 259 261 264 266 269 271 271 271 271 271 271 272 272 273 273 273 273 273 274 274 274 275 276 277 277 277 277 277 277
260 259 256 250 246 245 246 246 244 242 241 241 242 243 243 243 243 243 243 241 239 237 236 237 237 238 238 238 239 239 241 242 242 242 244 247 248 249 250 251 253 256 257 259 260 262 265 268 270 272 273 272 271 271 271 271 271 272 272 273 273 273 274 274 275 275 276 277 277 278 278 278 278 278
257 256 255 252 248 245 245 246 244 241 238 238 240 241 242 242 243 243 243 242 240 237 236 236 235 235 236 237 238 238 239 240 240 241 244 246 247 248 249 250 252 255 259 262 264 266 269 271 273 272 271 270 269 270 270 271 271 272 273 273 273 274 275 275 276 277 277 278 278 278 279 279 279 278
255 256 256 255 253 250 249 247 244 239 235 234 237 239 240 240 241 242 242 242 240 238 237 236 235 234 234 235 236 237 239 239 239 241 243 245 247 248 248 249 252 257 262 265 267 268 270 271 271 270 269 268 269 270 271 272 272 272 273 274 274 275 276 277 277 278 278 279 279 279 279 279 279 278
247 250 254 254 253 253 251 248 244 237 233 233 236 239 240 238 238 239 240 241 240 238 237 236 235 234 233 233 235 237 239 239 239 241 243 246 247 248 249 251 255 261 265 267 267 267 268 268 267 266 267 269 270 272 272 272 272 273 274 274 275 276 277 278 278 279 279 280 280 280 280 279 279 278
238 239 248 253 254 253 250 247 243 237 233 235 238 240 239 236 235 237 239 240 239 237 236 236 235 234 233 233 234 236 238 238 238 240 244 247 248 250 252 255 259 263 265 265 266 266 266 265 265 266 267 270 271 272 272 272 273 273 274 275 276 277 278 279 279 280 280 280 280 279 279 278 278 277
233 234 245 253 255 253 248 244 240 236 234 236 237 236 233 231 232 235 238 240 239 235 233 234 235 235 234 234 234 236 237 238 238 240 244 248 250 251 254 257 260 262 262 263 265 265 265 266 268 268 269 270 271 271 271 272 273 274 275 277 278 279 279 280 280 280 280 279 279 279 279 279 279 278
231 233 243 250 252 252 248 244 241 236 232 230 228 224 223 226 229 232 235 238 237 232 230 233 235 235 235 235 235 236 237 238 239 240 243 246 249 251 254 256 257 258 260 263 265 266 267 269 270 270 269 268 268 270 271 273 275 276 278 278 279 280 280 280 280 280 280 280 281 281 281 281 281 281
227 232 244 251 253 252 248 243 239 232 223 219 218 219 223 230 232 234 236 234 229 225 226 231 234 234 235 237 237 237 238 239 240 241 242 245 248 251 253 254 255 257 261 263 266 268 269 270 270 270 270 269 268 269 272 275 277 278 279 280 280 280 280 280 280 281 282 282 282 282 281 281 282 282
222 235 245 248 245 241 237 233 229 221 214 215 219 225 231 234 235 236 234 225 218 218 222 226 230 232 234 237 238 239 240 241 241 242 245 247 248 250 252 255 258 260 262 263 266 268 269 269 268 269 270 271 271 272 273 276 278 279 280 280 280 280 280 280 280 281 282 282 282 282 282 282 283 284
219 234 238 233 227 226 226 227 226 219 213 216 224 230 233 234 234 234 226 215 211 215 219 223 226 229 230 233 236 238 240 241 243 244 246 247 248 249 252 255 258 260 262 264 266 267 267 267 268 269 271 273 274 275 276 277 278 279 280 280 280 280 280 280 280 281 281 281 282 283 284 286 288 288
215 220 216 212 215 220 223 224 222 215 212 220 228 231 230 229 229 228 222 216 217 221 224 226 228 228 229 230 232 233 235 237 240 241 242 244 246 249 252 255 257 260 262 263 264 264 266 268 270 272 274 275 276 278 278 278 279 279 280 280 280 280 280 280 280 281 282 282 283 285 288 290 291 290
191 192 193 199 207 212 212 210 209 209 215 225 228 225 225 227 225 220 217 218 221 223 225 226 226 228 229 231 231 232 233 234 235 238 240 243 247 251 253 255 257 259 260 262 263 265 267 270 272 275 277 278 279 279 279 280 281 281 281 280 281 281 280 281 283 284 284 284 286 289 291 292 292 291
172 180 189 200 208 209 207 207 208 212 220 225 225 223 224 221 212 206 207 211 214 217 219 221 223 225 227 229 230 232 233 234 236 239 243 246 249 251 253 255 256 258 260 262 265 267 270 272 275 278 280 281 282 282 282 282 284 284 283 282 283 282 281 282 284 285 285 286 288 292 294 295 295 294
165 181 195 205 210 210 210 211 214 216 219 220 220 218 215 210 207 209 212 214 215 216 217 218 220 222 225 227 229 232 234 237 240 242 245 246 248 250 252 254 257 259 262 264 267 270 273 276 279 281 283 284 285 285 286 286 287 287 286 285 285 282 281 282 285 285 286 288 292 295 297 298 298 297
148 164 176 183 188 192 197 203 208 210 210 208 207 207 208 211 215 216 216 216 217 218 218 219 221 224 227 230 232 234 237 238 240 242 244 245 248 251 254 257 260 262 264 267 270 273 277 280 283 285 287 288 289 289 289 290 290 289 287 287 287 284 282 283 285 287 288 291 295 299 301 301 300 298
142 150 157 164 171 177 185 193 199 201 204 205 207 208 209 212 213 212 214 215 216 217 219 222 224 226 229 231 233 235 237 238 240 243 245 248 251 254 256 259 261 264 267 271 274 277 281 284 288 290 291 292 292 292 292 292 292 291 288 288 288 287 285 286 287 288 290 294 299 303 304 303 302 301
147 153 159 167 177 183 190 195 198 201 205 208 209 211 211 211 212 213 214 215 216 219 221 223 225 227 228 230 233 235 238 241 244 247 250 253 255 256 258 261 264 268 272 275 278 283 286 289 292 294 295 296 296 295 294 293 293 292 291 291 290 288 287 288 289 291 295 300 305 306 305 304 305 304
146 157 170 182 191 197 202 205 207 208 211 211 210 210 210 210 210 212 213 215 217 219 220 222 225 228 230 234 236 239 243 246 249 252 254 256 258 259 262 265 268 271 275 279 283 287 290 292 295 298 299 299 299 298 297 296 295 294 294 295 293 291 289 290 292 296 300 305 307 307 306 307 308 307
197 195 200 206 209 209 210 212 214 214 215 214 211 209 208 208 209 211 213 216 218 220 223 227 230 233 236 239 242 246 250 252 254 256 258 259 261 264 266 269 272 275 279 282 286 289 292 294 297 299 301 300 301 301 301 300 299 297 297 297 295 292 290 292 295 298 302 306 308 309 309 310 310 309
221 212 211 216 216 213 212 213 212 209 210 211 209 207 207 210 213 217 220 223 227 230 233 236 238 241 244 247 250 253 255 257 258 260 261 263 265 267 270 273 276 279 281 285 288 291 293 294 296 298 299 298 297 298 299 299 298 296 295 295 294 292 291 294 297 299 301 306 309 309 310 311 312 311
198 195 196 198 198 196 195 192 190 192 199 208 214 216 219 222 225 228 232 235 238 240 242 245 248 250 252 254 256 257 258 260 261 262 264 266 268 271 273 276 279 281 284 288 291 292 293 294 296 297 297 295 294 293 293 295 297 297 295 294 294 293 292 294 296 297 300 304 307 308 309 311 312 312
168 172 169 164 161 161 158 149 142 152 196 228 237 238 238 239 240 241 243 244 246 249 251 254 255 257 258 259 260 261 262 262 264 265 267 270 272 274 277 280 282 285 288 290 293 293 293 294 295 296 296 295 294 292 289 289 292 296 297 296 296 294 292 291 293 295 298 302 305 306 308 309 310 310
167 174 168 157 149 144 138 131 133 184 247 254 255 254 252 251 251 251 251 252 253 256 258 259 261 262 263 264 264 265 266 266 268 270 272 274 276 278 281 283 286 288 290 292 293 293 293 294 294 295 296 295 295 294 291 288 287 290 292 294 294 293 290 288 290 293 297 301 303 304 306 307 308 308
160 168 170 161 151 146 146 152 174 233 254 260 260 259 258 257 257 258 258 259 260 261 263 264 265 266 267 268 269 270 271 272 274 275 277 279 281 283 284 286 287 289 290 292 292 291 292 292 293 294 294 294 294 293 292 290 288 287 289 291 293 293 292 289 289 292 296 299 301 301 302 304 305 307
127 130 134 137 135 133 140 173 239 258 261 261 261 260 260 259 260 261 262 263 264 265 266 267 268 269 270 272 273 274 275 277 278 279 281 282 284 285 286 287 288 289 290 290 290 290 290 290 291 292 292 292 291 291 291 290 288 287 287 289 291 293 293 291 290 292 295 297 298 298 298 299 301 302
117 117 115 112 104 95 78 334 287 276 271 268 264 262 260 260 260 261 262 263 265 266 268 270 272 273 275 276 277 278 279 280 281 282 283 285 286 287 287 288 289 289 289 289 288 288 288 288 289 290 290 290 289 288 288 288 287 285 283 284 286 290 292 291 291 292 295 296 295 295 295 296 297 298
115 108 100 88 69 43 9 335 312 299 289 282 276 271 267 265 265 265 266 268 269 271 273 275 276 276 277 278 279 280 282 283 284 285 286 287 287 288 288 288 288 288 288 287 287 286 286 287 287 287 288 288 287 286 285 285 285 283 281 279 280 283 286 288 290 292 294 295 293 291 292 293 294 293
103 83 42 2 336 322 316 310 305 301 296 290 286 283 279 276 275 274 275 275 276 277 278 278 279 279 280 281 282 283 284 284 286 287 287 288 288 288 288 288 288 288 288 287 287 286 286 285 285 285 285 285 284 283 282 282 282 282 280 278 277 277 279 281 284 288 292 294 292 287 287 289 289 287
328 324 318 312 306 301 299 298 297 297 295 293 290 288 286 285 284 283 283 283 283 282 282 282 282 283 283 283 284 285 286 286 287 288 288 288 288 288 289 289 289 288 288 287 287 286 285 284 284 284 284 284 283 282 281 279 279 278 277 276 274 273 274 274 274 277 284 289 289 284 280 281 284 283